Asheville, NC

9:39 PM EDT on October 14, 2019 (GMT -0400)
Asheville Regional

Weather History for KAVL - May, 2019

Change the Weather History Date:

Tuesday, May 28, 2019

  Actual Average Record
Temperature  
Mean Temperature 75 °F 66 °F  
Max Temperature 91 °F 77 °F 91 °F (1941)
Min Temperature 59 °F 55 °F 35 °F (1961)
Degree Days  
Heating Degree Days 0 2  
Month to date heating degree days 25 105  
Since 1 July heating degree days 3552 4177  
Cooling Degree Days 10 3  
Month to date cooling degree days 132 44  
Year to date cooling degree days 149 52  
Growing Degree Days 25 (Base 50)    
Moisture  
Dew Point 57 °F    
Average Humidity 59    
Maximum Humidity 90    
Minimum Humidity 27    
Precipitation  
Precipitation 0.00 in 0.13 in 2.78 in (1976)
Month to date precipitation 3.35 3.28  
Year to date precipitation 27.14 17.87  
Snow  
Snow 0.00 in 0.00 in 0.00 in ()
Month to date snowfall 0.0 0.0  
Since 1 July snowfall 11.4 9.9  
Snow Depth 0.00 in    
Sea Level Pressure  
Sea Level Pressure 29.93 in    
Wind  
Wind Speed 3 mph (WSW)    
Max Wind Speed 16 mph    
Max Gust Speed 20 mph    
Visibility 10 miles    
Events      
T = Trace of Precipitation, MM = Missing Value Source: NWS Daily Summary

Daily Weather History Graph

Daily Weather History Graph

Search for Another Location

Airport or City:

Astronomy

May. 28, 2019 Rise Set
Actual Time 6:17 AM EDT 8:37 PM EDT
Civil Twilight 5:48 AM EDT 9:06 PM EDT
Nautical Twilight 5:12 AM EDT 9:42 PM EDT
Astronomical Twilight 4:33 AM EDT 10:21 PM EDT
Moon 3:13 AM EDT (5/28) 3:01 PM EDT (5/28)
Length of Visible Light 15h 17m
Length of Day
14h 19m
Waning Crescent, 32% of the Moon is Illuminated
May 28
Waning Crescent
Jun 3
New
Jun 10
First Quarter
Jun 17
Full
Jun 25
Last Quarter

Hourly Weather History & Observations

Time (EDT) Temp. Heat Index Dew Point Humidity Pressure Visibility Wind Dir Wind Speed Gust Speed Precip Events Conditions
12:54 AM 66.0 °F - 59.0 °F 78% 29.97 in 10.0 mi Calm Calm - N/A   Clear
1:54 AM 64.0 °F - 59.0 °F 84% 29.96 in 10.0 mi SW 3.5 mph - N/A   Clear
2:54 AM 63.0 °F - 59.0 °F 87% 29.96 in 10.0 mi Calm Calm - N/A   Clear
3:54 AM 62.1 °F - 57.9 °F 86% 29.96 in 10.0 mi Calm Calm - N/A   Clear
4:54 AM 61.0 °F - 57.0 °F 87% 29.96 in 10.0 mi Calm Calm - N/A   Clear
5:54 AM 60.1 °F - 57.0 °F 90% 29.97 in 9.0 mi Calm Calm - N/A   Clear
6:54 AM 59.0 °F - 55.9 °F 90% 29.98 in 7.0 mi Calm Calm - N/A   Clear
7:54 AM 62.1 °F - 57.9 °F 86% 29.99 in 9.0 mi South 3.5 mph - N/A   Clear
8:54 AM 70.0 °F - 60.1 °F 71% 29.99 in 10.0 mi Calm Calm - N/A   Clear
9:54 AM 75.9 °F - 61.0 °F 60% 29.97 in 10.0 mi Calm Calm - N/A   Clear
10:54 AM 80.1 °F 80.9 °F 60.1 °F 50% 29.96 in 10.0 mi Variable 3.5 mph - N/A   Clear
11:54 AM 84.0 °F 83.8 °F 59.0 °F 43% 29.94 in 10.0 mi SW 6.9 mph - N/A   Clear
12:54 PM 86.0 °F 85.0 °F 57.9 °F 38% 29.93 in 10.0 mi Variable 4.6 mph - N/A   Clear
1:54 PM 87.1 °F 85.7 °F 55.9 °F 35% 29.91 in 10.0 mi Variable 4.6 mph - N/A   Clear
2:54 PM 87.1 °F 85.7 °F 55.9 °F 35% 29.89 in 10.0 mi Calm Calm - N/A   Partly Cloudy
3:54 PM 89.1 °F - 51.1 °F 27% 29.87 in 10.0 mi WSW 8.1 mph - N/A   Partly Cloudy
4:54 PM 90.0 °F 87.9 °F 55.0 °F 30% 29.87 in 10.0 mi NW 12.7 mph 17.3 mph N/A   Clear
5:54 PM 88.0 °F 85.7 °F 53.1 °F 30% 29.87 in 10.0 mi WNW 9.2 mph - N/A   Clear
6:54 PM 86.0 °F 84.2 °F 54.0 °F 33% 29.87 in 10.0 mi NW 9.2 mph - N/A   Clear
7:54 PM 82.9 °F 82.1 °F 55.9 °F 39% 29.86 in 10.0 mi NW 8.1 mph - N/A   Clear
8:54 PM 79.0 °F - 55.9 °F 45% 29.86 in 10.0 mi WSW 4.6 mph - N/A   Clear
9:54 PM 75.9 °F - 57.0 °F 52% 29.88 in 10.0 mi Calm Calm - N/A   Clear
10:54 PM 73.0 °F - 57.9 °F 59% 29.90 in 10.0 mi SW 3.5 mph - N/A   Clear
11:54 PM 71.1 °F - 57.9 °F 63% 29.91 in 10.0 mi Calm Calm - N/A   Clear